Wind_Speed
35 34 34 33 31 29 27 25 24 22 20 18 17 17 17 18 18 18 21 14 11 11 12 8 6 5 9 12 11 14 0 5 5 6 8 20 12 20 15 15 15 14 14 16 16
36 36 36 35 33 31 29 27 24 23 21 19 17 16 17 19 21 23 20 17 16 15 14 12 8 11 18 16 14 7 4 7 8 11 7 16 15 18 17 18 12 16 17 17 5
37 37 37 36 35 33 31 29 26 24 22 20 17 16 15 15 20 10 7 12 17 17 16 6 8 8 9 10 21 10 10 9 19 27 24 12 13 19 12 5 17 19 22 19 17
38 37 38 37 36 35 32 30 28 25 23 20 18 17 14 10 4 3 4 2 7 11 13 6 8 9 3 6 16 5 17 16 16 23 24 9 22 12 12 20 24 24 23 23 21
40 39 38 38 37 36 34 32 29 27 24 21 18 17 14 11 22 13 19 11 8 5 7 7 10 10 6 7 12 9 9 21 25 25 18 17 9 11 19 28 28 26 24 21 6
40 40 41 38 38 36 34 33 30 27 25 21 19 17 16 12 20 12 10 14 12 8 9 8 7 10 15 14 7 12 21 22 21 23 23 13 12 23 29 32 28 23 15 5 3
35 43 42 41 39 36 34 33 31 28 25 22 19 18 21 31 9 5 10 11 10 9 9 10 14 21 8 6 13 11 8 10 11 17 12 23 11 15 32 23 16 21 8 6 5
36 26 38 41 39 37 34 32 30 28 25 22 18 17 17 25 23 25 18 17 17 17 14 12 8 7 3 8 10 5 5 5 6 18 25 14 16 10 17 2 4 6 7 3 4
42 39 33 40 39 37 34 31 28 27 24 21 17 14 12 9 24 32 32 30 22 17 14 11 10 10 5 3 3 6 6 10 14 18 12 12 7 13 18 11 11 11 17 12 10
38 44 38 31 37 38 33 30 28 25 21 14 16 8 21 18 24 24 27 27 21 18 19 15 7 4 4 6 8 6 8 9 11 9 4 5 5 6 9 10 13 15 17 8 22
28 43 45 32 37 42 40 33 19 14 32 18 18 23 8 13 17 20 17 26 22 16 10 16 6 10 22 17 12 8 11 15 14 10 6 7 7 10 13 14 13 18 6 25 25
34 37 49 42 30 51 50 52 49 11 10 40 30 30 35 24 8 16 19 24 20 17 15 6 18 19 14 14 16 16 17 17 9 12 10 8 6 5 12 14 17 17 26 24 23
32 28 44 53 36 52 55 61 40 11 3 13 49 49 31 28 18 21 27 26 18 19 20 18 9 22 18 18 18 17 15 11 11 5 8 9 9 8 10 9 23 28 27 21 21
32 37 33 43 33 57 56 50 28 31 4 8 15 17 33 34 18 28 34 28 9 22 17 17 22 16 19 17 13 12 6 8 6 4 5 3 5 4 6 8 11 20 21 21 22
24 29 28 33 28 45 51 49 30 26 7 10 27 15 30 32 13 39 30 36 18 12 17 11 16 21 21 12 18 10 5 5 6 6 4 3 5 6 20 10 10 10 22 20 16
20 26 30 26 44 44 43 51 40 8 10 7 14 23 20 26 17 33 35 31 21 12 18 22 15 9 17 12 6 3 5 5 12 2 11 10 10 6 13 13 13 12 20 18 16
22 24 34 26 33 40 46 38 13 9 5 10 13 29 25 18 25 10 28 23 17 17 21 16 22 15 5 5 9 7 4 4 3 3 9 10 12 11 1 21 18 12 21 18 14
24 23 29 41 30 40 44 15 12 11 20 10 14 21 23 17 23 24 17 26 28 20 11 15 13 20 16 22 12 15 13 7 8 5 2 11 6 4 15 21 23 22 19 18 17
25 24 30 39 31 43 38 18 13 13 21 2 17 19 21 20 10 21 28 26 29 31 16 15 17 8 18 19 23 11 17 16 7 6 2 4 10 12 13 11 15 17 18 15 16
23 24 38 40 44 39 24 25 14 17 11 25 16 13 19 27 20 23 24 23 25 32 19 3 2 10 11 22 21 14 6 11 3 5 7 6 7 10 7 9 8 7 10 10 13
23 14 30 35 44 30 14 16 11 27 14 31 27 13 17 25 26 29 19 15 31 26 27 8 4 6 8 15 20 10 16 4 9 6 5 3 4 5 11 7 6 3 4 7 9
24 8 25 19 11 4 10 5 16 19 28 9 3 13 13 22 27 24 24 16 24 22 29 29 8 7 7 5 6 12 13 7 7 7 2 4 5 12 10 8 6 2 3 10 10
25 26 22 25 13 10 2 6 13 18 27 12 9 6 19 15 12 24 19 1 9 24 21 16 6 7 4 7 2 4 5 7 6 3 7 8 5 12 7 6 9 12 13 8 12
12 7 17 31 18 12 7 6 8 22 18 15 6 7 12 3 2 7 18 2 5 6 14 23 5 15 15 4 9 6 8 8 7 5 4 14 3 6 6 6 8 16 11 10 13
24 5 16 8 15 19 13 13 9 7 3 24 19 12 17 7 3 6 10 4 7 4 5 5 5 3 4 7 4 13 13 11 10 6 10 3 11 3 2 4 9 9 9 11 12
7 5 21 11 12 18 23 14 21 9 10 21 16 25 18 13 15 7 9 6 6 1 4 5 5 4 2 7 5 1 11 13 14 13 11 11 14 5 9 18 9 5 8 10 12
30 22 14 12 12 18 16 15 21 19 7 21 23 17 15 9 10 9 6 10 9 7 4 5 5 4 4 8 7 4 12 17 16 17 16 13 12 5 4 3 5 7 9 12 14
Wind_Direction
250 247 247 244 245 244 247 249 253 256 262 268 276 283 288 292 291 289 276 258 260 260 266 280 249 264 256 249 254 264 272 253 258 282 279 339 359 342 349 359 342 338 343 347 221
252 249 246 246 244 244 245 247 249 254 258 264 271 279 290 300 299 287 285 253 247 256 261 266 250 275 250 243 239 199 188 246 235 262 284 309 340 332 351 343 341 335 312 330 256
251 250 247 244 245 243 243 246 247 251 256 261 267 274 286 301 310 287 277 228 236 249 256 223 280 290 293 267 270 246 225 238 259 272 303 303 330 326 344 319 316 310 308 303 295
251 248 248 245 243 244 243 244 247 250 254 258 264 269 277 281 264 75 38 219 220 221 196 209 242 257 242 239 265 280 270 266 279 290 287 284 295 298 305 290 294 291 286 282 276
247 248 245 246 242 241 242 241 242 247 251 255 259 263 267 251 242 253 287 276 261 227 218 209 270 266 248 263 319 296 295 304 305 312 297 320 315 290 288 283 282 281 277 277 249
245 245 245 242 242 239 238 240 240 243 247 251 253 256 254 247 257 246 274 248 252 246 230 225 245 260 282 270 259 284 288 288 294 294 300 300 297 292 279 276 275 276 262 175 113
238 248 247 241 237 237 235 236 238 239 242 245 249 252 247 239 215 194 248 247 240 248 238 239 270 249 287 312 290 291 315 304 297 293 290 285 279 262 269 273 296 249 210 144 278
236 240 240 240 237 233 231 232 235 237 238 239 244 246 252 257 251 228 215 224 233 222 225 238 261 291 299 302 331 335 289 282 258 263 261 235 258 267 260 183 302 204 172 229 216
250 251 257 235 232 231 227 226 228 232 232 235 234 232 265 236 229 242 227 231 231 246 236 244 263 259 274 246 309 226 254 264 282 251 249 207 220 231 225 206 224 230 210 269 119
251 247 251 248 236 222 222 216 216 220 221 225 207 231 252 234 238 236 225 218 228 236 231 218 220 214 191 190 222 201 229 245 244 287 1 308 273 271 262 259 253 262 262 236 114
266 250 251 252 244 222 206 188 182 210 209 198 195 207 307 214 273 226 220 213 221 224 207 192 193 201 219 214 236 258 273 277 278 290 322 280 278 281 282 271 259 262 290 124 103
252 251 250 249 251 233 205 193 193 201 209 222 227 230 238 254 298 205 196 194 191 203 199 217 223 218 229 229 223 231 242 256 276 285 283 302 297 305 298 268 244 140 119 112 101
251 259 245 248 260 223 208 213 201 164 296 205 225 225 218 234 236 215 198 198 196 199 194 207 211 216 220 229 234 234 234 241 247 273 313 308 302 306 300 64 100 113 113 105 95
248 244 255 242 238 203 207 210 187 209 279 239 196 235 222 224 252 218 202 189 208 205 202 225 230 224 220 226 231 237 250 266 271 278 254 119 277 217 274 112 99 108 105 100 94
259 246 252 211 213 200 213 205 175 168 222 215 200 190 188 189 148 208 209 199 208 190 196 214 187 219 240 220 218 235 243 292 296 286 295 216 277 227 238 156 147 132 111 98 88
276 243 245 234 214 223 209 197 179 215 218 243 164 171 161 196 202 185 198 205 216 217 234 228 238 203 227 232 227 266 196 226 269 265 262 211 211 229 221 176 148 131 121 114 104
275 255 240 245 213 203 203 177 194 203 148 214 194 168 172 177 198 166 194 196 198 205 224 229 238 231 210 272 281 199 152 246 248 222 241 191 204 240 85 138 133 131 121 111 92
280 277 251 238 228 206 192 196 204 183 195 177 164 177 185 149 204 203 184 202 207 204 189 205 235 217 204 219 205 209 198 191 208 208 232 215 236 199 114 105 112 107 93 80 64
285 277 256 235 233 211 197 209 189 184 203 252 164 175 188 192 148 188 214 207 202 196 192 192 231 182 208 209 208 195 218 212 280 306 16 220 77 65 78 73 73 73 62 52 30
279 277 260 237 225 226 200 210 187 210 168 200 197 184 184 189 193 189 193 219 213 205 199 258 328 216 206 211 218 194 151 206 167 200 229 207 212 156 131 93 65 49 45 25 3
271 252 259 245 224 247 224 190 195 206 207 187 214 183 193 183 200 190 200 211 207 201 196 190 90 302 166 202 190 180 208 188 178 176 186 174 233 154 117 105 87 59 24 2 5
247 235 248 219 214 237 204 171 188 185 210 198 251 230 190 194 197 193 205 199 197 189 188 202 184 217 246 360 18 201 206 160 194 235 177 137 254 150 134 136 139 176 32 339 358
227 234 245 209 216 218 321 113 201 180 190 160 215 249 233 191 202 208 199 270 54 192 186 162 184 177 336 328 344 201 191 134 106 98 215 186 230 176 121 96 48 0 339 15 14
226 214 215 207 231 215 162 165 188 201 197 168 170 222 222 92 36 200 207 3 40 126 151 153 159 204 204 209 154 171 177 147 133 172 181 221 207 283 341 22 10 330 313 37 15
207 206 185 190 214 214 193 159 160 161 249 193 208 204 190 186 86 184 197 126 50 26 55 111 133 116 56 72 171 188 191 170 196 188 195 155 253 257 328 347 291 312 39 19 7
199 192 176 196 199 213 183 184 179 164 160 188 204 200 196 189 204 180 150 151 178 30 92 20 104 109 87 98 88 184 212 195 203 216 248 267 264 260 282 277 284 67 52 17 29
220 232 203 191 179 195 196 164 187 178 225 204 202 180 191 178 95 126 87 79 148 141 113 97 119 136 148 131 99 303 226 201 212 225 218 226 240 214 216 145 108 72 36 59 20
Height
1492 1495 1498 1500 1502 1504 1506 1508 1510 1511 1511 1513 1513 1513 1512 1510 1509 1508 1505 1506 1506 1508 1509 1510 1510 1510 1513 1512 1512 1512 1520 1523 1515 1509 1501 1493 1495 1493 1495 1493 1493 1495 1497 1498 1493
1485 1488 1492 1494 1496 1499 1501 1504 1505 1507 1508 1509 1510 1509 1509 1508 1505 1501 1502 1502 1503 1506 1507 1508 1508 1509 1510 1509 1511 1509 1517 1510 1502 1500 1499 1494 1494 1492 1491 1491 1491 1493 1494 1496 1497
1478 1481 1485 1487 1491 1493 1495 1499 1500 1502 1505 1506 1506 1506 1507 1506 1503 1496 1495 1497 1500 1503 1505 1506 1507 1507 1506 1506 1505 1504 1508 1500 1497 1496 1494 1492 1491 1493 1492 1491 1493 1493 1494 1494 1494
1470 1473 1478 1481 1484 1488 1490 1493 1496 1498 1501 1502 1503 1503 1504 1505 1505 1496 1496 1496 1497 1500 1502 1503 1505 1505 1505 1505 1500 1504 1497 1496 1495 1493 1492 1490 1488 1488 1490 1488 1490 1491 1491 1490 1490
1460 1465 1469 1474 1477 1481 1484 1488 1491 1494 1496 1499 1499 1500 1501 1501 1493 1494 1496 1498 1498 1500 1502 1502 1503 1503 1503 1499 1498 1497 1494 1493 1492 1491 1488 1487 1488 1488 1488 1486 1486 1486 1486 1485 1485
1449 1455 1461 1465 1470 1474 1478 1482 1485 1488 1492 1495 1496 1496 1497 1496 1490 1492 1493 1494 1496 1497 1498 1501 1501 1502 1500 1497 1498 1495 1494 1492 1490 1488 1488 1486 1485 1487 1484 1481 1480 1480 1481 1482 1482
1438 1445 1451 1456 1461 1467 1471 1476 1480 1484 1487 1490 1492 1491 1489 1481 1487 1488 1491 1491 1493 1494 1495 1498 1500 1500 1496 1495 1493 1494 1494 1489 1488 1486 1485 1484 1487 1483 1477 1477 1475 1475 1478 1479 1481
1429 1433 1438 1446 1453 1459 1464 1470 1475 1479 1482 1484 1487 1487 1476 1477 1480 1482 1485 1485 1490 1491 1492 1495 1496 1494 1494 1495 1492 1496 1494 1498 1486 1482 1478 1485 1491 1476 1472 1473 1473 1474 1475 1477 1480
1420 1424 1429 1434 1444 1452 1458 1465 1469 1475 1477 1481 1482 1485 1474 1471 1467 1472 1479 1480 1484 1489 1490 1492 1494 1494 1495 1498 1503 1496 1502 1496 1488 1472 1473 1474 1479 1468 1467 1468 1470 1471 1473 1474 1474
1414 1416 1421 1425 1433 1444 1451 1458 1464 1470 1473 1477 1477 1485 1471 1458 1460 1461 1468 1475 1479 1484 1489 1490 1491 1492 1495 1499 1505 1496 1496 1492 1488 1468 1469 1472 1472 1468 1465 1464 1465 1467 1470 1471 1471
1404 1404 1415 1419 1422 1430 1441 1450 1464 1465 1461 1454 1455 1454 1449 1455 1458 1455 1462 1470 1475 1478 1482 1482 1489 1489 1481 1481 1481 1482 1484 1485 1476 1469 1471 1472 1471 1465 1458 1457 1459 1463 1466 1470 1470
1398 1402 1404 1411 1416 1418 1421 1424 1429 1443 1454 1450 1451 1449 1451 1452 1455 1451 1459 1466 1466 1468 1475 1481 1477 1472 1473 1476 1477 1478 1481 1480 1473 1466 1468 1471 1469 1461 1456 1452 1453 1460 1466 1470 1468
1391 1393 1396 1398 1408 1406 1408 1412 1429 1437 1444 1437 1437 1436 1443 1450 1450 1445 1453 1457 1458 1462 1465 1470 1459 1463 1467 1468 1470 1470 1473 1474 1475 1468 1465 1468 1470 1465 1454 1449 1449 1458 1462 1467 1466
1384 1386 1386 1393 1402 1401 1399 1416 1429 1441 1447 1428 1428 1420 1434 1446 1436 1440 1444 1451 1452 1454 1460 1460 1456 1457 1457 1460 1462 1469 1460 1462 1467 1473 1490 1466 1496 1464 1455 1461 1459 1460 1462 1464 1465
1375 1378 1382 1382 1388 1392 1398 1409 1425 1433 1439 1406 1400 1407 1413 1427 1418 1422 1436 1442 1441 1442 1452 1440 1441 1449 1449 1450 1451 1458 1457 1462 1466 1473 1476 1475 1484 1459 1446 1462 1460 1459 1460 1462 1465
1370 1371 1375 1374 1377 1387 1397 1406 1411 1410 1408 1388 1378 1386 1405 1410 1413 1414 1426 1435 1439 1440 1437 1434 1436 1434 1437 1440 1445 1449 1457 1460 1466 1472 1480 1473 1477 1458 1443 1442 1454 1457 1460 1462 1464
1366 1368 1371 1375 1372 1382 1393 1393 1393 1385 1391 1375 1368 1374 1383 1395 1407 1408 1418 1425 1428 1441 1435 1433 1428 1429 1434 1445 1445 1449 1460 1487 1491 1492 1477 1452 1464 1447 1433 1434 1445 1453 1459 1462 1464
1359 1359 1359 1362 1368 1374 1381 1380 1368 1371 1374 1356 1360 1375 1377 1386 1398 1401 1409 1412 1414 1417 1426 1436 1438 1426 1424 1431 1440 1441 1450 1475 1484 1481 1465 1446 1459 1440 1438 1444 1450 1454 1459 1462 1465
1352 1351 1348 1349 1358 1361 1364 1348 1345 1355 1353 1357 1357 1367 1373 1377 1383 1400 1393 1395 1393 1399 1413 1424 1421 1409 1413 1421 1432 1441 1443 1442 1454 1450 1471 1458 1451 1447 1446 1451 1452 1456 1458 1461 1463
1346 1343 1333 1341 1347 1350 1336 1337 1351 1343 1348 1364 1359 1360 1363 1372 1378 1385 1392 1378 1387 1391 1399 1403 1419 1404 1405 1413 1418 1423 1432 1454 1463 1486 1477 1455 1446 1451 1454 1455 1455 1457 1458 1460 1461
1340 1334 1320 1329 1340 1334 1309 1320 1340 1337 1341 1350 1348 1354 1351 1362 1363 1372 1368 1368 1376 1381 1394 1403 1415 1417 1402 1407 1413 1423 1429 1436 1444 1460 1470 1476 1464 1448 1452 1453 1454 1456 1456 1457 1459
1332 1323 1314 1324 1329 1317 1312 1319 1323 1329 1338 1344 1344 1345 1346 1353 1356 1364 1366 1365 1362 1373 1385 1389 1412 1427 1417 1412 1410 1408 1420 1434 1445 1460 1467 1477 1474 1447 1449 1450 1450 1452 1454 1455 1454
1316 1310 1311 1317 1310 1312 1311 1314 1320 1325 1326 1342 1348 1346 1345 1346 1358 1352 1357 1363 1362 1366 1374 1389 1414 1426 1432 1422 1413 1418 1414 1422 1444 1454 1456 1458 1459 1442 1441 1442 1442 1444 1446 1448 1449
1304 1297 1303 1305 1299 1306 1308 1315 1320 1319 1319 1328 1341 1346 1347 1354 1352 1358 1354 1363 1361 1362 1367 1377 1399 1391 1389 1393 1400 1415 1412 1418 1430 1448 1450 1432 1443 1434 1433 1436 1438 1441 1444 1445 1445
1284 1277 1278 1283 1294 1292 1300 1306 1312 1317 1321 1324 1337 1335 1337 1354 1359 1358 1353 1363 1368 1371 1373 1379 1395 1404 1406 1402 1400 1402 1407 1415 1424 1432 1436 1431 1429 1432 1431 1434 1438 1440 1441 1441 1441
1269 1267 1272 1271 1276 1293 1288 1298 1302 1313 1315 1320 1324 1332 1333 1341 1341 1356 1356 1363 1366 1374 1379 1387 1401 1411 1420 1417 1421 1420 1411 1419 1425 1427 1427 1429 1426 1427 1430 1433 1435 1437 1436 1436 1438
1257 1259 1259 1259 1270 1277 1279 1288 1295 1305 1315 1312 1314 1330 1333 1337 1346 1352 1357 1359 1361 1367 1380 1391 1402 1408 1417 1419 1424 1431 1422 1416 1420 1418 1419 1426 1423 1426 1428 1430 1432 1432 1432 1433 1434